EW3708 Weather Reports


time (UTC)temp
F
wind
direction
speed
knots
gust
knots
rain 1hr
in
rain 24hr
in
rain mn
in
humidity
%
barometer
mb
20240614111503 65 196 0.9 1.7 0.00 0.00 0.00 96 1010.5
20240614110100 64 196 0.0 1.7 0.00 0.00 0.00 96 1010.4
20240614104601 64 222 0.0 0.9 0.00 0.00 0.00 96 1010.4
20240614103103 64 222 0.0 0.9 0.00 0.00 0.00 96 1010.3
20240614101558 64 223 0.0 0.9 0.00 0.00 0.00 95 1010.3
20240614100102 64 223 0.0 0.9 0.00 0.00 0.00 95 1010.2
20240614094608 64 223 0.9 2.6 0.00 0.00 0.00 95 1010.1
20240614093105 64 205 0.0 1.7 0.00 0.00 0.00 95 1010.3
20240614091558 64 205 0.0 1.7 0.00 0.00 0.00 95 1010.3
20240614090100 63 205 0.9 1.7 0.00 0.00 0.00 94 1010.3
20240614084601 64 205 0.9 1.7 0.00 0.00 0.00 94 1010.2
20240614083055 64 205 0.0 0.9 0.00 0.00 0.00 94 1010.3
20240614081549 65 205 0.0 0.9 0.00 0.00 0.00 93 1010.4
20240614080049 65 205 0.9 1.7 0.00 0.00 0.00 94 1010.7
20240614074546 65 205 0.0 1.7 0.00 0.00 0.00 93 1010.8
20240614073044 65 205 0.0 0.9 0.00 0.00 0.00 92 1010.7
20240614071545 66 205 0.9 1.7 0.00 0.00 0.00 92 1010.8
20240614070057 66 205 0.0 0.9 0.00 0.00 0.00 92 1011.0
20240614064538 66 205 0.0 1.7 0.00 0.00 0.00 91 1011.2
20240614063038 66 198 0.0 1.7 0.00 0.00 0.00 90 1011.0
20240614061536 67 111 0.0 2.6 0.00 0.00 0.00 90 1011.1
20240614060032 67 110 0.0 1.7 0.00 0.00 0.00 90 1011.2
20240614054530 67 119 0.0 1.7 0.00 0.00 0.00 89 1011.5
20240614053028 67 125 0.0 1.7 0.00 0.00 0.00 89 1011.6
20240614051525 67 125 0.0 1.7 0.00 0.00 0.00 88 1011.9
20240614050024 68 125 0.0 2.6 0.00 0.00 0.00 88 1012.0
20240614044523 68 88 0.9 2.6 0.00 0.00 0.00 88 1012.2
20240614043031 68 130 0.9 2.6 0.00 0.00 0.00 87 1012.3
20240614041518 68 153 0.9 2.6 0.00 0.00 0.00 87 1012.7
20240614040018 68 153 0.0 1.7 0.00 0.00 0.00 86 1012.8
20240614034526 68 153 0.9 1.7 0.00 0.00 0.00 85 1013.1
20240614033016 69 153 0.0 1.7 0.00 0.00 0.00 84 1013.2
20240614031527 69 153 0.0 1.7 0.00 0.00 0.00 84 1013.1
20240614030015 69 153 0.9 1.7 0.00 0.00 0.00 83 1013.1
20240614024514 69 153 0.0 1.7 0.00 0.00 0.00 82 1012.8
20240614023014 69 153 0.9 1.7 0.00 0.00 0.00 81 1012.7
20240614021513 69 153 0.9 2.6 0.00 0.00 0.00 80 1012.7
20240614020011 70 153 0.9 2.6 0.00 0.00 0.00 79 1012.9
20240614014521 70 153 0.0 1.7 0.00 0.00 0.00 78 1013.0
20240614013018 70 153 0.0 1.7 0.00 0.00 0.00 77 1012.9
20240614011510 71 153 0.9 1.7 0.00 0.00 0.00 75 1012.8
20240614010014 72 153 0.0 1.7 0.00 0.00 0.00 72 1012.8
20240614004521 73 153 0.0 1.7 0.00 0.00 0.00 70 1012.8
20240614003009 74 153 0.0 1.7 0.00 0.00 0.00 68 1012.8
20240614001509 75 153 0.9 2.6 0.00 0.00 0.00 66 1012.9
20240614000025 76 153 0.9 1.7 0.00 0.00 0.00 64 1012.9
20240613234505 76 153 0.9 4.3 0.00 0.00 0.00 62 1013.1
20240613233004 77 163 0.9 4.3 0.00 0.00 0.00 60 1013.1
20240613231514 77 192 0.9 2.6 0.00 0.00 0.00 59 1013.2
20240613230008 77 192 0.9 3.5 0.00 0.00 0.00 58 1013.4
20240613224502 77 215 0.9 4.3 0.00 0.00 0.00 57 1013.4
20240613223001 78 169 0.9 4.3 0.00 0.00 0.00 56 1013.3
20240613221615 79 244 0.9 3.5 0.00 0.00 0.00 55 1013.2
20240613220111 79 199 0.9 5.2 0.00 0.00 0.00 54 1013.1
20240613214558 79 170 2.6 6.1 0.00 0.00 0.00 52 1013.0
20240613213057 79 155 0.9 6.1 0.00 0.00 0.00 51 1013.0
20240613211555 80 200 1.7 5.2 0.00 0.00 0.00 49 1013.2
20240613210111 80 268 1.7 3.5 0.00 0.00 0.00 48 1013.1
20240613204553 80 187 0.9 4.3 0.00 0.00 0.00 47 1013.1
20240613203050 80 183 0.9 5.2 0.00 0.00 0.00 48 1013.3
20240613201551 80 261 0.9 3.5 0.00 0.00 0.00 46 1013.4
20240613200048 81 169 1.7 7.8 0.00 0.00 0.00 46 1013.6
20240613194556 81 153 1.7 7.0 0.00 0.00 0.00 46 1013.8
20240613193049 81 224 0.9 4.3 0.00 0.00 0.00 47 1014.0
20240613191544 82 210 0.9 6.1 0.00 0.00 0.00 46 1014.2
20240613190039 81 254 1.7 6.1 0.00 0.00 0.00 47 1014.4
20240613184605 81 189 1.7 6.1 0.00 0.00 0.00 46 1014.6
20240613183036 82 123 0.9 5.2 0.00 0.00 0.00 45 1014.7
20240613181549 81 165 0.9 3.5 0.00 0.00 0.00 46 1014.7
20240613180044 81 210 1.7 6.1 0.00 0.00 0.00 46 1014.8
20240613174533 81 154 1.7 7.0 0.00 0.00 0.00 45 1014.9
20240613173034 81 232 1.7 7.0 0.00 0.00 0.00 48 1014.9
20240613171539 81 169 0.9 3.5 0.00 0.00 0.00 46 1015.0
20240613170034 80 151 1.7 5.2 0.00 0.00 0.00 48 1015.1
20240613164526 80 222 1.7 4.3 0.00 0.00 0.00 47 1015.3
20240613163023 79 157 2.6 6.1 0.00 0.00 0.00 49 1015.3
20240613161531 78 173 2.6 6.1 0.00 0.00 0.00 48 1015.5
20240613160044 77 205 0.9 5.2 0.00 0.00 0.00 51 1015.5
20240613154518 76 272 0.9 2.6 0.00 0.00 0.00 48 1015.4
20240613153016 75 186 1.7 5.2 0.00 0.00 0.00 48 1015.7
20240613151533 74 5 0.9 3.5 0.00 0.00 0.00 50 1015.7
20240613150009 74 153 0.9 4.3 0.00 0.00 0.00 51 1015.6
20240613144506 73 161 0.0 4.3 0.00 0.00 0.00 55 1015.6
20240613143040 72 212 0.9 2.6 0.00 0.00 0.00 56 1015.7
20240613141535 70 158 0.0 1.7 0.00 0.00 0.00 61 1015.8
20240613140023 69 174 0.0 1.7 0.00 0.00 0.00 65 1015.8
20240613134524 67 169 0.0 2.6 0.00 0.00 0.00 72 1016.0
20240613133015 66 169 0.0 0.9 0.00 0.00 0.00 74 1016.1
20240613131512 64 169 0.0 1.7 0.00 0.00 0.00 79 1016.3
20240613130007 61 125 0.0 1.7 0.00 0.00 0.00 88 1016.4
20240613124502 58 172 0.0 1.7 0.00 0.00 0.00 95 1016.5
20240613123059 56 172 0.0 0.0 0.00 0.00 0.00 95 1016.5
20240613121617 55 172 0.0 0.0 0.00 0.00 0.00 95 1016.5
20240613120052 53 172 0.0 0.0 0.00 0.00 0.00 95 1016.5
20240613114556 51 172 0.0 0.0 0.00 0.00 0.00 95 1016.4
20240613113049 50 172 0.0 0.0 0.00 0.00 0.00 95 1016.2